Regional Weather Roundup
Issued by NWS San Diego, CA

Home | Current Version | Previous Version | Text Only | Print | Product List | Glossary On
Versions: 1 2 3 4 5 6 7 8 9 10 11 12 13 14 15 16 17 18 19 20 21 22 23 24 25 26 27 28 29 30 31 32 33 34 35 36 37 38 39 40 41 42 43 44 45 46 47 48 49 50
164
ASUS46 KSGX 230204
RWRSGX

SAN DIEGO HOURLY WEATHER ROUNDUP
NATIONAL WEATHER SERVICE SAN DIEGO CA
700 PM PDT FRI SEP 22 2017

NOTE: "FAIR" INDICATES FEW OR NO CLOUDS BELOW 12,000 FEET WITH NO
SIGNIFICANT WEATHER AND/OR OBSTRUCTIONS TO VISIBILITY.

CAZ042-043-060-061-PZZ750-775-230300-

GREATER SAN DIEGO AREA

CITY           SKY/WX    TMP DP  RH WIND       PRES   REMARKS
SAN DIEGO AP   PTCLDY    69  56  62 NW9       29.83S
NATIONAL CITY    N/A     68  58  70 CALM      29.84S
CHULA VISTA      N/A     67  58  72 W9        29.74S
IMPERIAL BEACH CLEAR     67  55  65 W8        29.82S
BROWN FIELD    PTCLDY    65  55  70 W8        29.82S
MIRAMAR MCAS   CLEAR     69  56  62 NW8       29.82S
MONTGOMERY FLD PTCLDY    69  54  58 W8        29.82S
GILLESPIE FLD  PTCLDY    68  54  60 VRB7      29.82S

$$

NORTH SAN DIEGO COUNTY

CITY           SKY/WX    TMP DP  RH WIND       PRES   REMARKS
CAMP PENDLETON CLEAR     66  54  65 VRB3      29.80R
OCEANSIDE AP   PTCLDY    68  58  70 W12       29.80R
OCEANSIDE HBR    N/A     66  59  77 NW10      29.83R
VISTA            N/A     66  56  70 W3        29.78S
CARLSBAD       CLEAR     67  58  72 VRB7      29.81R
DEL MAR          N/A     67  60  77 CALM      29.83S
LA JOLLA SCRIP   N/A     67  59  76 W6        29.81S
FALLBROOK        N/A     66  56  70 S2        29.80R
ESCONDIDO        N/A     67  55  66 W6        29.83R
SAN MARCOS       N/A     65  56  70 NW8       29.83S
POWAY            N/A     66  55  67 CALM      29.83R

$$

EAST SAN DIEGO COUNTY

CITY           SKY/WX    TMP DP  RH WIND       PRES   REMARKS
RAMONA         PTCLDY    62  52  69 W9        29.82S
LA MESA          N/A     66  55  68 CALM      29.75S
JAMUL            N/A     64  56  76 CALM      29.82S
DESCANSO N       N/A     54  49  83 SW3       29.77S
CAMPO            N/A     59  50  72 W12       29.80S

$$

ORANGE COUNTY AND THE LOS ANGELES BASIN

CITY           SKY/WX    TMP DP  RH WIND       PRES   REMARKS
JOHN WAYNE AP  PTCLDY    66  57  72 W7        29.80S
LAGUNA BEACH     N/A     66  60  80 NW2       29.76S
LAKE FOREST FR   N/A     63  52  67 W2        29.70S
HUNTINGTON BCH   N/A     65  59  79 W3        29.81F
LOS ALAMITOS   PTCLDY    67  55  65 W10       29.80S
FULLERTON      PTCLDY    68  56  65 W7        29.79S
LONG BEACH     CLEAR     67  55  65 NW13      29.80S
L.A. AP        PTCLDY    66  52  60 W18       29.80F
L.A. DOWNTOWN  CLEAR     67  45  45 VRB3      29.80S

$$

THE INLAND EMPIRE

CITY           SKY/WX    TMP DP  RH WIND       PRES   REMARKS
CORONA         CLEAR     66  50  56 VRB7      29.80R
CHINO          PTCLDY    68  50  52 SW12      29.81R
ONTARIO        PTCLDY    66  49  54 W13       29.80R
SAN BERNARDINO PTCLDY    68  46  45 W10       29.80R
RIVERSIDE AP   CLEAR     66  49  54 W16       29.79S
MORENO VALLEY    N/A     66  54  64 SW5       27.93S
MARCH ARB      CLEAR     64  48  54 W12       29.80R
HORSETHIEF CYN   N/A     65  45  47 CALM      29.80R
PERRIS           N/A     66  52  60 W5          N/A
HEMET EAST       N/A     64  46  53 S2        29.85S
FRENCH VALLEY  FAIR      64  48  55 SW7       29.81R
TEMECULA         N/A     67  52  59 SW7       29.85R

$$

SAN BERNARDINO AND RIVERSIDE COUNTY MOUNTAINS

CITY           SKY/WX    TMP DP  RH WIND       PRES   REMARKS
BIG BEAR AP    MOCLDY    43  32  65 SW3       29.91R
PINE COVE        N/A     45  40  83 CALM      29.84S

$$

SOUTHERN DESERT INCLUDING THE COACHELLA VALLEY

CITY           SKY/WX    TMP DP  RH WIND       PRES   REMARKS
PALM SPRINGS   CLEAR     79  38  22 W16G25    29.70S
THOUSAND PALMS   N/A     77  39  25 NW14      29.66S
PALM DESERT      N/A     79  40  24 N3          N/A
THERMAL        CLEAR     81  34  18 NW10      29.65S
BLYTHE         CLEAR     80  27  14 W7        29.67F
IMPERIAL AP    CLEAR     79  37  22 NW5       29.66S
EL CENTRO NAS  CLEAR     80  41  24 W10       29.69R
MEXICALI       CLEAR     79  28  15 N6        29.67F

$$

UPPER DESERT

CITY           SKY/WX    TMP DP  RH WIND       PRES   REMARKS
VICTORVILLE AP CLEAR     64  18  16 CALM      29.81S
HESPERIA         N/A     60  46  60 W5        29.89S
PALMDALE       CLEAR     63  45  51 SW16      29.81R
LANCASTER      CLEAR     63  28  26 W17       29.81S
EDWARDS AFB    PTCLDY    67  25  21 W15       29.77R
DAGGETT        CLEAR     69  20  15 W8        29.76S
29 PALMS N     CLEAR     72  17  12 CALM      29.81S
NEEDLES        CLEAR     80  23  12 E5        29.68S

$$

REGIONAL REPORTS

CITY           SKY/WX    TMP DP  RH WIND       PRES   REMARKS
SANTA BARBARA  CLEAR     68  47  46 N16       29.78R
SANDBERG       CLEAR     51  35  54 N14       29.89R
LAS VEGAS NV   PTCLDY    73  25  16 N6        29.74S
PHOENIX AZ     PTCLDY    84  39  20 W15       29.64F
TIJUANA        MOCLDY    66  55  68 W10       29.84F

$$

OFFSHORE ISLANDS

CITY           SKY/WX    TMP DP  RH WIND       PRES   REMARKS
CATALINA ARPT  CLEAR     59  51  75 W13       29.84S
SAN NICOLAS IS FOG       59  32  36 W21G26    29.84S VSB 3/4

$$

MARINE AND OFFSHORE BUOY REPORTS

STATION/POSITION SKY/WX   TEMP    WIND        PRES    VSBY  SWELL
                          AIR SEA DIR/SP/G                  HT/PER/DIR
                          (F)     (DEG/KT/KT) (MB)    (MI)  (FT/S/D)
TANNER BANKS               64 66  310/ 17/ 19 1010.8          5/330/11
S CLEMENTE BASIN           66 70  290/ 17/ 19 1009.9          3/280/11
SAN NICOLAS IS.               63                N/A           3/310/11
SO. S. ROSA ISLA           62 62  290/ 19/ 23 1010.1          5/310/11
W. S. BARBARA CH           61 62  310/ 17/ 21 1010.1S         5/300/11
M. S. BARBARA CH           62 63  270/ 19/ 25 1009.6S         2/250/ 8
S. MONICA BASIN               69  280/ 16/ 17 1009.1F         2/210/11
S PEDRO CHANNEL               67                N/A           2/180/11
CMP PENDLETON NS              69                N/A           2/230/13
OCEANSIDE OFFSHR              68                N/A           2/180/11
TORREY PINES OTR              69                N/A           2/210/11
SAN DIEGO BAY                 73              1010.1S
POINT LOMA SOUTH              71                N/A           2/230/11

$$





USA.gov is the U.S. government's official web portal to all federal, state and local government web resources and services.